Miscellaneous Local Product
Issued by NWS Hastings, NE

Home | Current Version | Previous Version | Text Only | Print | Product List | Glossary Off
Versions: 1 2 3 4 5 6 7 8 9 10 11 12 13 14 15 16 17 18 19 20 21 22 23 24 25 26 27 28 29 30 31 32 33 34 35 36 37 38 39 40 41 42 43 44 45 46 47 48 49 50

000
AXUS43 KGID 300102
MISGRI

GID CWA HOURLY WEATHER ROUNDUP
NATIONAL WEATHER SERVICE HASTINGS NE
800 PM CDT TUE JUL 29 2014

NOTE: "FAIR" INDICATES FEW OR NO CLOUDS BELOW 12,000 FEET WITH NO
SIGNIFICANT WEATHER AND/OR OBSTRUCTIONS TO VISIBILITY.

...SOUTH CENTRAL NEBRASKA...

CITY           SKY/WX    TMP DP  RH WIND       PRES   REMARKS
GRAND ISLAND   MOCLDY    73  57  57 E8        30.15R
HASTINGS       PTCLDY    74  56  53 E6        30.14S
KEARNEY        PTCLDY    73  59  60 E7        30.15S
ORD            CLOUDY    72  58  61 NE5       30.14R
YORK           MOCLDY    72  59  64 E3        30.14S
AURORA         PTCLDY    71  59  65 E6        30.13F
LEXINGTON      MOCLDY    75  61  60 E10       30.14S
HOLDREGE       MOCLDY    73  60  63 E8        30.14R
HEBRON         PTCLDY    76  56  49 NE6       30.12S

...NEBRASKA PANHANDLE...

CITY           SKY/WX    TMP DP  RH WIND       PRES   REMARKS
CHADRON        LGT RAIN  71  54  54 NE8       30.21R
ALLIANCE       CLOUDY    71  59  65 SE10      30.21R
SCOTTSBLUFF    LGT RAIN  70  60  70 E9        30.20R
SIDNEY         CLOUDY    68  57  68 NE20G29   30.18F

...WESTERN AND NORTH CENTRAL NEBRASKA...

CITY           SKY/WX    TMP DP  RH WIND       PRES   REMARKS
VALENTINE      MOSUNNY   75  49  39 NE7       30.17S
AINSWORTH      CLOUDY    73  53  49 CALM      30.17S
ONEILL         CLOUDY    74  55  51 E10G16    30.15R
BROKEN BOW     MOCLDY    73  60  63 E6        30.15R
IMPERIAL       CLOUDY    78  58  49 E14       30.11S
NORTH PLATTE   LGT RAIN  70  64  81 S7        30.15S
MCCOOK         MOCLDY    78  58  49 E17G26    30.10S

...EASTERN NEBRASKA...

CITY           SKY/WX    TMP DP  RH WIND       PRES   REMARKS
NORFOLK        MOCLDY    72  55  55 NE6       30.13S
SO SIOUX CITY  CLEAR     74  55  51 N7        30.11F
TEKAMAH        PTCLDY    73  56  54 NE3       30.11S
ALBION         MOCLDY    70  60  69 E3        30.14R
OMAHA EPPLEY   MOCLDY    75  53  46 NE6       30.11F
OFFUTT AFB     PTCLDY    73  57  57 NE3       30.10F
MILLARD        PTCLDY    74  55  52 CALM      30.11S
LINCOLN        MOCLDY    75  54  47 NE10      30.13R
NEBRASKA CITY  MOCLDY    72  57  59 NE3       30.11S
BEATRICE       MOCLDY    75  57  53 NE5       30.11S
FALLS CITY     PTCLDY    75  59  57 NE3       30.09F

...NORTHERN KANSAS...

CITY           SKY/WX    TMP DP  RH WIND       PRES   REMARKS
GOODLAND       CLOUDY    78  60  53 SE14      30.10S
HILL CITY      MOCLDY    81  57  43 E16G22    30.07S
NORTON         CLEAR     79  52  38 E15       30.08F
PHILLIPSBURG   PTCLDY    82  54  36 E14       30.09R
SMITH CENTER   MOCLDY    75  57  53 E16       30.11R
HAYS           MOCLDY    84  59  42 E10G16    30.06S
RUSSELL        MOCLDY    79  58  48 E16       30.06R
CONCORDIA      MOCLDY    77  59  53 E6        30.10R
SALINA         PTCLDY    81  59  47 E13       30.07R
TOPEKA         MOCLDY    79  59  50 NE6       30.08F



USA.gov is the U.S. government's official web portal to all federal, state and local government web resources and services.